| time (UTC) | temp F | wind direction | speed knots | gust knots | rain 1hr in | rain 24hr in | rain mn in | humidity % | barometer mb |
| 20260506235439 | 53 | 77 | 2.6 | 2.6 | 0.00 | 0.00 | 0.20 | 48 | 1013.1 |
| 20260506234439 | 53 | 80 | 0.9 | 2.6 | 0.00 | 0.00 | 0.20 | 49 | 1013.0 |
| 20260506233439 | 53 | 39 | 3.5 | 7.0 | 0.00 | 0.00 | 0.20 | 46 | 1012.6 |
| 20260506232439 | 53 | 42 | 0.9 | 1.7 | 0.00 | 0.00 | 0.20 | 47 | 1012.8 |
| 20260506231439 | 54 | 60 | 3.5 | 4.3 | 0.00 | 0.00 | 0.20 | 46 | 1013.0 |
| 20260506230439 | 54 | 28 | 2.6 | 3.5 | 0.00 | 0.00 | 0.20 | 49 | 1013.0 |
| 20260506225439 | 54 | 36 | 2.6 | 2.6 | 0.00 | 0.00 | 0.20 | 47 | 1012.8 |
| 20260506224439 | 54 | 57 | 0.9 | 1.7 | 0.00 | 0.00 | 0.20 | 49 | 1013.1 |
| 20260506223439 | 54 | 214 | 1.7 | 1.7 | 0.00 | 0.00 | 0.20 | 49 | 1013.1 |
| 20260506222439 | 54 | 69 | 0.9 | 1.7 | 0.00 | 0.00 | 0.20 | 48 | 1013.0 |
| 20260506221439 | 55 | 14 | 2.6 | 2.6 | 0.00 | 0.00 | 0.20 | 47 | 1013.1 |
| 20260506220439 | 55 | 55 | 1.7 | 2.6 | 0.00 | 0.00 | 0.20 | 49 | 1012.9 |
| 20260506215439 | 55 | 0 | 3.5 | 3.5 | 0.00 | 0.00 | 0.20 | 47 | 1012.8 |
| 20260506214440 | 55 | 43 | 4.3 | 4.3 | 0.00 | 0.00 | 0.20 | 45 | 1012.7 |
| 20260506213439 | 54 | 75 | 0.9 | 1.7 | 0.00 | 0.00 | 0.20 | 48 | 1012.3 |
| 20260506212439 | 55 | 50 | 1.7 | 2.6 | 0.00 | 0.00 | 0.20 | 47 | 1012.4 |
| 20260506211439 | 55 | 10 | 1.7 | 3.5 | 0.00 | 0.00 | 0.20 | 45 | 1012.4 |
| 20260506210438 | 55 | 33 | 4.3 | 4.3 | 0.00 | 0.00 | 0.20 | 46 | 1012.4 |
| 20260506205439 | 55 | 15 | 2.6 | 3.5 | 0.00 | 0.00 | 0.20 | 46 | 1012.3 |
| 20260506204439 | 55 | 6 | 2.6 | 3.5 | 0.00 | 0.00 | 0.20 | 46 | 1012.3 |
| 20260506203439 | 55 | 96 | 1.7 | 2.6 | 0.00 | 0.00 | 0.20 | 46 | 1012.0 |
| 20260506202439 | 55 | 83 | 2.6 | 3.5 | 0.00 | 0.00 | 0.20 | 47 | 1012.0 |
| 20260506201439 | 54 | 76 | 2.6 | 2.6 | 0.00 | 0.00 | 0.20 | 48 | 1012.3 |
| 20260506200439 | 55 | 50 | 3.5 | 4.3 | 0.00 | 0.00 | 0.20 | 48 | 1011.9 |
| 20260506195439 | 55 | 38 | 3.5 | 6.1 | 0.00 | 0.00 | 0.20 | 47 | 1012.2 |
| 20260506194439 | 55 | 12 | 2.6 | 4.3 | 0.00 | 0.00 | 0.20 | 48 | 1012.1 |
| 20260506193439 | 55 | 40 | 2.6 | 3.5 | 0.00 | 0.00 | 0.20 | 47 | 1012.2 |
| 20260506192439 | 56 | 26 | 1.7 | 3.5 | 0.00 | 0.00 | 0.20 | 46 | 1012.1 |
| 20260506190658 | 57 | 28 | 1.7 | 3.5 | 0.00 | 0.00 | 0.20 | 46 | 1011.5 |
| 20260506185658 | 57 | 8 | 2.6 | 3.5 | 0.00 | 0.00 | 0.20 | 45 | 1011.4 |
| 20260506184658 | 57 | 61 | 1.7 | 2.6 | 0.00 | 0.00 | 0.20 | 46 | 1011.7 |
| 20260506183658 | 57 | 24 | 3.5 | 5.2 | 0.00 | 0.00 | 0.20 | 44 | 1011.8 |
| 20260506182658 | 57 | 22 | 2.6 | 2.6 | 0.00 | 0.00 | 0.20 | 46 | 1011.8 |
| 20260506181658 | 57 | 73 | 0.9 | 3.5 | 0.00 | 0.00 | 0.20 | 44 | 1011.7 |
| 20260506180658 | 56 | 28 | 3.5 | 4.3 | 0.00 | 0.00 | 0.20 | 47 | 1011.8 |
| 20260506175658 | 57 | 341 | 1.7 | 4.3 | 0.00 | 0.00 | 0.20 | 48 | 1011.9 |
| 20260506174658 | 57 | 29 | 3.5 | 5.2 | 0.00 | 0.00 | 0.20 | 50 | 1012.0 |
| 20260506173658 | 57 | 55 | 1.7 | 2.6 | 0.00 | 0.00 | 0.20 | 47 | 1012.0 |
| 20260506172659 | 57 | 31 | 0.9 | 2.6 | 0.00 | 0.00 | 0.20 | 46 | 1012.1 |
| 20260506171658 | 57 | 4 | 0.0 | 2.6 | 0.00 | 0.00 | 0.20 | 51 | 1011.9 |
| 20260506170658 | 56 | 33 | 3.5 | 3.5 | 0.00 | 0.00 | 0.20 | 46 | 1011.9 |
| 20260506165658 | 55 | 37 | 6.1 | 6.1 | 0.00 | 0.00 | 0.20 | 52 | 1012.1 |
| 20260506164658 | 54 | 31 | 0.9 | 2.6 | 0.00 | 0.00 | 0.20 | 52 | 1012.3 |
| 20260506163658 | 54 | 33 | 3.5 | 3.5 | 0.00 | 0.00 | 0.20 | 55 | 1012.0 |
| 20260506162658 | 55 | 41 | 3.5 | 3.5 | 0.00 | 0.00 | 0.20 | 53 | 1012.3 |
| 20260506161658 | 54 | 76 | 1.7 | 3.5 | 0.00 | 0.00 | 0.20 | 52 | 1012.3 |
| 20260506160658 | 54 | 47 | 4.3 | 4.3 | 0.00 | 0.00 | 0.20 | 55 | 1012.3 |
| 20260506155658 | 53 | 118 | 1.7 | 2.6 | 0.00 | 0.00 | 0.20 | 58 | 1012.0 |
| 20260506154658 | 53 | 33 | 3.5 | 3.5 | 0.00 | 0.00 | 0.20 | 57 | 1012.0 |
| 20260506153658 | 52 | 14 | 3.5 | 3.5 | 0.00 | 0.00 | 0.20 | 61 | 1011.7 |
| 20260506152658 | 51 | 43 | 2.6 | 3.5 | 0.00 | 0.00 | 0.20 | 62 | 1011.8 |
| 20260506151658 | 51 | 3 | 3.5 | 3.5 | 0.00 | 0.00 | 0.20 | 63 | 1011.6 |
| 20260506150658 | 50 | 50 | 1.7 | 2.6 | 0.00 | 0.00 | 0.20 | 67 | 1011.7 |
| 20260506145659 | 50 | 21 | 3.5 | 4.3 | 0.00 | 0.00 | 0.20 | 64 | 1011.7 |
| 20260506144658 | 49 | 103 | 1.7 | 2.6 | 0.00 | 0.00 | 0.20 | 66 | 1011.9 |
| 20260506143659 | 49 | 84 | 1.7 | 2.6 | 0.00 | 0.00 | 0.20 | 65 | 1011.7 |
| 20260506142658 | 49 | 31 | 3.5 | 6.1 | 0.00 | 0.00 | 0.20 | 71 | 1011.0 |
| 20260506141658 | 48 | 64 | 1.7 | 2.6 | 0.00 | 0.00 | 0.20 | 75 | 1011.3 |
| 20260506140658 | 48 | 0 | 2.6 | 2.6 | 0.00 | 0.00 | 0.20 | 75 | 1011.3 |
| 20260506135658 | 47 | 31 | 1.7 | 2.6 | 0.00 | 0.00 | 0.20 | 81 | 1011.0 |
| 20260506134658 | 46 | 81 | 1.7 | 2.6 | 0.00 | 0.00 | 0.20 | 81 | 1011.4 |
| 20260506133658 | 46 | 47 | 3.5 | 4.3 | 0.00 | 0.00 | 0.20 | 83 | 1011.2 |
| 20260506132658 | 45 | 27 | 4.3 | 5.2 | 0.00 | 0.00 | 0.20 | 84 | 1010.8 |
| 20260506131658 | 45 | 74 | 2.6 | 2.6 | 0.00 | 0.00 | 0.20 | 85 | 1011.0 |
| 20260506130703 | 45 | 14 | 2.6 | 2.6 | 0.00 | 0.00 | 0.20 | 88 | 1011.3 |
| 20260506125658 | 45 | 78 | 2.6 | 4.3 | 0.00 | 0.00 | 0.20 | 88 | 1011.2 |
| 20260506124658 | 45 | 20 | 0.9 | 1.7 | 0.00 | 0.00 | 0.20 | 91 | 1010.7 |
| 20260506123658 | 44 | 64 | 0.0 | 1.7 | 0.00 | 0.00 | 0.20 | 87 | 1010.7 |
| 20260506122658 | 45 | 44 | 3.5 | 3.5 | 0.00 | 0.00 | 0.20 | 87 | 1010.4 |
| 20260506121658 | 45 | 2 | 1.7 | 2.6 | 0.00 | 0.00 | 0.20 | 89 | 1010.2 |
| 20260506120658 | 45 | 31 | 0.9 | 2.6 | 0.00 | 0.10 | 0.20 | 95 | 1010.2 |
| 20260506115658 | 45 | 65 | 0.9 | 2.6 | 0.00 | 0.10 | 0.20 | 96 | 1010.0 |
| 20260506114658 | 45 | 48 | 1.7 | 2.6 | 0.00 | 0.10 | 0.20 | 96 | 1009.8 |
| 20260506113658 | 45 | 18 | 2.6 | 2.6 | 0.00 | 0.10 | 0.20 | 96 | 1010.1 |
| 20260506112658 | 45 | 32 | 1.7 | 2.6 | 0.00 | 0.10 | 0.20 | 96 | 1009.7 |
| 20260506111658 | 45 | 91 | 0.9 | 1.7 | 0.00 | 0.10 | 0.20 | 96 | 1009.1 |
| 20260506110658 | 45 | 25 | 0.9 | 1.7 | 0.00 | 0.10 | 0.20 | 96 | 1008.5 |
| 20260506105703 | 45 | 48 | 2.6 | 3.5 | 0.00 | 0.10 | 0.20 | 96 | 1009.1 |
| 20260506104658 | 45 | 1 | 3.5 | 3.5 | 0.00 | 0.10 | 0.20 | 97 | 1008.7 |
| 20260506103658 | 45 | 77 | 2.6 | 2.6 | 0.00 | 0.10 | 0.20 | 97 | 1009.0 |
| 20260506102658 | 45 | 50 | 4.3 | 5.2 | 0.00 | 0.20 | 0.20 | 97 | 1009.1 |
| 20260506101658 | 45 | 40 | 2.6 | 2.6 | 0.00 | 0.20 | 0.20 | 97 | 1008.8 |
| 20260506100659 | 45 | 102 | 0.9 | 2.6 | 0.00 | 0.20 | 0.20 | 97 | 1008.2 |
| 20260506095658 | 45 | 35 | 1.7 | 2.6 | 0.00 | 0.20 | 0.20 | 97 | 1007.9 |
| 20260506094658 | 45 | 88 | 1.7 | 2.6 | 0.00 | 0.20 | 0.20 | 97 | 1007.8 |
| 20260506093658 | 45 | 348 | 1.7 | 2.6 | 0.00 | 0.20 | 0.20 | 97 | 1007.5 |
| 20260506092658 | 45 | 19 | 0.0 | 2.6 | 0.00 | 0.20 | 0.20 | 97 | 1007.8 |
| 20260506091658 | 45 | 52 | 0.9 | 1.7 | 0.00 | 0.20 | 0.20 | 97 | 1008.0 |
| 20260506090658 | 45 | 21 | 2.6 | 2.6 | 0.00 | 0.20 | 0.20 | 97 | 1007.7 |
| 20260506085658 | 45 | 35 | 2.6 | 2.6 | 0.00 | 0.20 | 0.20 | 97 | 1007.4 |
| 20260506084658 | 45 | 37 | 1.7 | 2.6 | 0.00 | 0.20 | 0.20 | 97 | 1008.0 |
| 20260506083658 | 45 | 354 | 2.6 | 2.6 | 0.00 | 0.20 | 0.20 | 97 | 1008.2 |
| 20260506082658 | 45 | 7 | 1.7 | 2.6 | 0.00 | 0.20 | 0.20 | 97 | 1008.1 |
| 20260506081658 | 45 | 31 | 2.6 | 3.5 | 0.00 | 0.20 | 0.20 | 96 | 1007.7 |
| 20260506080658 | 45 | 19 | 4.3 | 6.1 | 0.00 | 0.20 | 0.20 | 96 | 1008.1 |
| 20260506072658 | 45 | 70 | 3.5 | 4.3 | 0.10 | 0.20 | 0.20 | 96 | 1007.1 |
| 20260506071658 | 45 | 112 | 0.9 | 3.5 | 0.10 | 0.20 | 0.20 | 96 | 1007.1 |
| 20260506070658 | 45 | 84 | 2.6 | 3.5 | 0.10 | 0.20 | 0.20 | 96 | 1007.3 |
| 20260506061658 | 47 | 42 | 4.3 | 4.3 | 0.00 | 0.20 | 0.10 | 96 | 1007.5 |
| 20260506060658 | 47 | 64 | 2.6 | 3.5 | 0.00 | 0.20 | 0.10 | 97 | 1007.2 |
| 20260506050658 | 48 | 26 | 3.5 | 3.5 | 0.00 | 0.30 | 0.00 | 96 | 1007.6 |
| 20260506044658 | 48 | 64 | 3.5 | 4.3 | 0.00 | 0.30 | 0.00 | 96 | 1007.7 |
| 20260506043659 | 48 | 60 | 1.7 | 1.7 | 0.00 | 0.30 | 0.00 | 96 | 1007.4 |
| 20260506042658 | 49 | 354 | 3.5 | 4.3 | 0.00 | 0.30 | 0.00 | 97 | 1007.5 |
| 20260506041658 | 49 | 78 | 2.6 | 3.5 | 0.00 | 0.30 | 0.00 | 97 | 1007.3 |
| 20260506040658 | 49 | 111 | 0.9 | 2.6 | 0.10 | 0.30 | 0.00 | 97 | 1007.7 |
| 20260506035658 | 49 | 51 | 2.6 | 4.3 | 0.10 | 0.30 | 0.50 | 96 | 1007.6 |
| 20260506034658 | 49 | 52 | 2.6 | 4.3 | 0.10 | 0.30 | 0.50 | 96 | 1007.7 |
| 20260506033658 | 49 | 162 | 0.9 | 1.7 | 0.10 | 0.30 | 0.50 | 96 | 1007.8 |
| 20260506032658 | 49 | 160 | 1.7 | 2.6 | 0.10 | 0.30 | 0.50 | 95 | 1007.9 |
| 20260506031658 | 49 | 1 | 2.6 | 3.5 | 0.10 | 0.30 | 0.50 | 95 | 1008.3 |
| 20260506030658 | 50 | 61 | 0.9 | 2.6 | 0.10 | 0.30 | 0.50 | 95 | 1008.6 |
| 20260506025658 | 51 | 48 | 5.2 | 5.2 | 0.10 | 0.20 | 0.40 | 95 | 1008.4 |
| 20260506024658 | 51 | 103 | 4.3 | 4.3 | 0.10 | 0.20 | 0.40 | 95 | 1008.0 |
| 20260506023659 | 53 | 65 | 1.7 | 3.5 | 0.10 | 0.20 | 0.40 | 94 | 1008.1 |
| 20260506022658 | 58 | 26 | 3.5 | 3.5 | 0.10 | 0.20 | 0.40 | 96 | 1007.4 |
| 20260506021658 | 58 | 124 | 0.9 | 0.9 | 0.10 | 0.20 | 0.40 | 96 | 1007.4 |
| 20260506020658 | 58 | 52 | 1.7 | 1.7 | 0.10 | 0.20 | 0.40 | 96 | 1007.2 |
| 20260506015658 | 58 | 70 | 1.7 | 1.7 | 0.10 | 0.20 | 0.30 | 96 | 1007.4 |
| 20260506014703 | 58 | 186 | 0.9 | 1.7 | 0.10 | 0.20 | 0.30 | 95 | 1007.4 |
| 20260506013703 | 58 | 81 | 0.9 | 1.7 | 0.10 | 0.20 | 0.30 | 95 | 1007.4 |
| 20260506012658 | 58 | 186 | 0.0 | 0.0 | 0.00 | 0.20 | 0.30 | 95 | 1007.2 |
| 20260506011658 | 58 | 177 | 1.7 | 1.7 | 0.00 | 0.20 | 0.30 | 95 | 1006.7 |
| 20260506010703 | 59 | 67 | 1.7 | 1.7 | 0.00 | 0.20 | 0.30 | 96 | 1006.7 |
| 20260506005659 | 59 | 59 | 0.9 | 0.9 | 0.00 | 0.20 | 0.30 | 97 | 1006.7 |
| 20260506002658 | 59 | 63 | 0.9 | 0.9 | 0.00 | 0.20 | 0.20 | 96 | 1006.7 |
| 20260506001658 | 59 | 108 | 0.9 | 1.7 | 0.00 | 0.20 | 0.20 | 96 | 1006.7 |
| 20260506000658 | 59 | 62 | 2.6 | 2.6 | 0.00 | 0.20 | 0.20 | 96 | 1006.9 |
| 20260505235658 | 59 | 127 | 0.0 | 0.0 | 0.00 | 0.20 | 0.20 | 95 | 1006.6 |